カタログに戻る

STERKH 2

運用中科学SSO
NORAD 35866·PAYLOAD·🇷🇺 Russia

打ち上げ Sep 17, 2009 から Baikonur Cosmodrome

Loading…

次のパス (今後24時間)

TLE

最新Source: Space-Track

元期: Sep 14, 2026, 08:27 UTC

1 35866U 09049B   26257.35249518  .00000056  00000-0  43443-4 0  9992
2 35866  98.7257 217.8247 0003797  37.8422 322.3023 14.23993458882338

AllMySatでSTERKH 2をリアルタイム追跡

Download on the App Store